Total_Precipitation_Accumulation
0.11 0.12 0.14 0.18 0.20 0.22 0.27 0.33 0.39 0.53 0.67 0.76 0.88 1.07 1.24 1.40 1.54 1.66 1.55 1.41 1.37 1.52 1.59 1.51 1.54 1.49 1.30 1.22 1.22 1.19 1.07 0.78 0.55 0.52 0.39 0.23 0.14 0.12 0.09 0.08 0.06 0.07 0.05
0.07 0.06 0.06 0.09 0.10 0.12 0.17 0.22 0.29 0.40 0.53 0.66 0.89 1.11 1.40 1.48 1.55 1.68 1.74 1.67 1.60 1.73 1.73 1.80 1.82 1.81 1.75 1.64 1.45 1.44 1.49 1.18 0.82 0.83 0.95 0.62 0.38 0.20 0.13 0.12 0.11 0.11 0.10
0.06 0.04 0.04 0.05 0.07 0.08 0.10 0.16 0.27 0.42 0.63 0.85 1.14 1.42 1.67 1.74 1.78 1.69 1.77 1.85 1.89 1.94 1.96 2.01 2.03 1.97 1.79 1.73 1.75 1.76 2.00 1.73 1.28 1.02 1.12 0.91 0.67 0.44 0.21 0.15 0.16 0.17 0.15
0.08 0.06 0.06 0.07 0.08 0.11 0.15 0.24 0.38 0.60 0.87 1.20 1.52 1.74 1.98 2.07 1.89 1.86 1.89 1.88 1.84 1.87 1.97 1.97 1.95 1.90 1.79 1.82 1.87 1.82 2.06 2.15 1.77 1.40 1.07 0.81 0.69 0.67 0.48 0.28 0.22 0.23 0.19
0.14 0.12 0.13 0.15 0.19 0.24 0.31 0.46 0.68 0.98 1.27 1.49 1.66 1.86 1.98 1.98 1.93 1.89 1.89 1.81 1.78 1.76 1.77 1.77 1.82 1.84 1.84 1.87 2.01 2.04 2.20 2.16 2.07 1.76 1.54 1.35 1.06 0.75 0.68 0.60 0.41 0.31 0.24
0.19 0.21 0.23 0.29 0.36 0.40 0.54 0.71 0.89 1.17 1.34 1.45 1.57 1.75 1.87 1.91 1.91 1.87 1.88 1.86 1.82 1.71 1.64 1.63 1.67 1.77 1.89 1.92 1.96 2.04 2.22 2.27 2.27 2.05 1.76 1.62 1.47 1.24 1.09 0.83 0.65 0.53 0.37
0.27 0.28 0.38 0.52 0.60 0.64 0.72 0.86 0.94 1.11 1.21 1.25 1.35 1.48 1.54 1.59 1.62 1.59 1.55 1.49 1.43 1.41 1.44 1.53 1.60 1.71 1.83 1.88 1.93 2.04 2.03 2.10 2.28 2.24 2.00 1.76 1.53 1.45 1.32 1.17 0.91 0.72 0.47
0.42 0.54 0.67 0.77 0.84 0.85 0.81 0.82 0.95 1.00 0.97 1.00 1.02 1.13 1.21 1.25 1.30 1.28 1.24 1.24 1.26 1.28 1.24 1.28 1.38 1.58 1.76 1.84 1.87 1.84 1.81 1.85 1.99 1.98 1.98 1.92 1.65 1.52 1.37 1.28 1.30 1.10 0.84
0.66 0.89 1.07 1.18 1.26 1.17 0.98 0.83 0.84 0.83 0.80 0.84 0.89 0.94 1.03 1.06 1.07 1.08 1.02 1.09 1.11 1.07 1.01 1.02 1.08 1.19 1.41 1.64 1.76 1.65 1.56 1.54 1.62 1.69 1.78 1.88 1.87 1.74 1.58 1.52 1.44 1.34 1.11
1.09 1.34 1.59 1.70 1.68 1.49 1.22 0.94 0.79 0.74 0.70 0.72 0.77 0.83 0.88 0.89 0.87 0.89 0.83 0.86 0.93 0.92 0.90 0.87 0.90 1.00 1.12 1.31 1.49 1.54 1.49 1.45 1.46 1.57 1.68 1.78 1.88 1.92 1.73 1.63 1.54 1.36 1.19
1.52 1.66 1.81 1.86 1.60 1.42 1.17 0.92 0.77 0.79 0.78 0.78 0.77 0.77 0.75 0.73 0.72 0.72 0.69 0.69 0.73 0.71 0.74 0.86 0.88 0.94 1.01 1.15 1.36 1.50 1.50 1.43 1.42 1.43 1.47 1.59 1.66 1.87 1.84 1.74 1.61 1.46 1.28
1.27 1.35 1.41 1.36 1.32 1.27 1.10 0.94 0.85 0.85 0.88 0.88 0.86 0.78 0.69 0.65 0.64 0.63 0.56 0.54 0.50 0.50 0.60 0.69 0.73 0.75 0.77 0.90 1.13 1.30 1.34 1.29 1.23 1.21 1.26 1.44 1.59 1.79 1.90 1.87 1.75 1.64 1.51
1.10 1.10 1.10 1.11 1.14 1.11 0.99 0.97 0.94 0.94 0.94 0.92 0.82 0.74 0.67 0.58 0.54 0.48 0.44 0.49 0.48 0.52 0.61 0.68 0.73 0.74 0.75 0.72 0.78 0.90 1.02 1.05 1.01 0.99 1.00 1.04 1.17 1.41 1.61 1.69 1.72 1.76 1.72
0.86 0.87 0.91 0.94 1.03 1.00 0.96 0.91 0.87 0.92 1.01 1.06 0.96 0.85 0.73 0.62 0.56 0.49 0.44 0.42 0.43 0.47 0.52 0.55 0.61 0.69 0.70 0.67 0.66 0.69 0.74 0.75 0.78 0.80 0.86 0.90 0.91 1.04 1.17 1.29 1.49 1.71 1.72
0.55 0.60 0.64 0.64 0.62 0.59 0.61 0.63 0.69 0.80 0.94 1.08 1.07 0.93 0.74 0.61 0.54 0.49 0.43 0.40 0.40 0.40 0.45 0.49 0.51 0.57 0.63 0.68 0.69 0.58 0.52 0.56 0.60 0.62 0.63 0.67 0.75 0.81 0.87 0.93 1.18 1.47 1.61
0.33 0.31 0.32 0.33 0.34 0.31 0.28 0.27 0.33 0.48 0.73 0.99 0.97 0.75 0.58 0.46 0.41 0.41 0.39 0.35 0.34 0.38 0.43 0.43 0.45 0.53 0.55 0.66 0.63 0.47 0.42 0.44 0.51 0.58 0.56 0.54 0.54 0.57 0.60 0.66 0.76 0.96 1.18
0.20 0.20 0.20 0.20 0.20 0.19 0.18 0.19 0.26 0.38 0.54 0.64 0.60 0.51 0.40 0.38 0.41 0.43 0.37 0.34 0.33 0.34 0.37 0.38 0.40 0.44 0.56 0.57 0.41 0.38 0.38 0.43 0.47 0.51 0.58 0.55 0.49 0.52 0.51 0.56 0.59 0.57 0.64
0.11 0.11 0.12 0.13 0.15 0.16 0.19 0.22 0.27 0.34 0.38 0.40 0.40 0.34 0.30 0.31 0.34 0.35 0.34 0.40 0.44 0.42 0.41 0.44 0.44 0.44 0.49 0.45 0.32 0.33 0.35 0.41 0.46 0.53 0.62 0.66 0.60 0.60 0.65 0.60 0.60 0.55 0.51
0.04 0.03 0.03 0.03 0.05 0.05 0.06 0.08 0.10 0.12 0.12 0.12 0.13 0.12 0.12 0.13 0.14 0.16 0.22 0.33 0.40 0.42 0.44 0.47 0.48 0.43 0.39 0.39 0.29 0.28 0.36 0.42 0.49 0.52 0.57 0.63 0.61 0.72 0.77 0.71 0.79 0.75 0.65
0.01 0.00 0.00 0.00 0.00 0.00 0.00 0.00 0.00 0.01 0.01 0.01 0.01 0.01 0.02 0.02 0.04 0.06 0.08 0.15 0.19 0.24 0.32 0.34 0.38 0.40 0.38 0.46 0.33 0.32 0.36 0.44 0.55 0.59 0.58 0.71 0.69 0.71 0.70 0.64 0.81 0.82 0.70
0.00 0.00 0.00 0.00 0.00 0.00 0.00 0.00 0.00 0.00 0.00 0.00 0.00 0.00 0.00 0.00 0.01 0.02 0.03 0.06 0.08 0.12 0.17 0.21 0.27 0.34 0.39 0.46 0.43 0.46 0.47 0.51 0.64 0.65 0.59 0.55 0.65 0.52 0.53 0.54 0.57 0.73 0.68
0.00 0.00 0.00 0.00 0.00 0.00 0.00 0.00 0.00 0.00 0.00 0.00 0.00 0.00 0.00 0.00 0.01 0.01 0.02 0.02 0.03 0.06 0.09 0.11 0.15 0.22 0.27 0.33 0.38 0.38 0.41 0.46 0.58 0.65 0.55 0.53 0.60 0.45 0.43 0.44 0.51 0.59 0.61
0.00 0.00 0.00 0.00 0.00 0.00 0.00 0.00 0.00 0.00 0.00 0.00 0.00 0.00 0.00 0.01 0.01 0.01 0.01 0.02 0.03 0.05 0.06 0.09 0.15 0.21 0.28 0.29 0.25 0.22 0.24 0.29 0.42 0.48 0.50 0.50 0.47 0.42 0.38 0.39 0.45 0.50 0.54
0.00 0.00 0.00 0.00 0.00 0.00 0.00 0.00 0.00 0.00 0.00 0.00 0.00 0.00 0.01 0.01 0.01 0.02 0.03 0.03 0.04 0.05 0.09 0.13 0.18 0.23 0.26 0.28 0.25 0.26 0.27 0.27 0.31 0.33 0.34 0.36 0.39 0.43 0.41 0.37 0.40 0.47 0.54
0.00 0.00 0.00 0.00 0.00 0.00 0.00 0.00 0.00 0.00 0.00 0.00 0.00 0.00 0.00 0.01 0.01 0.01 0.01 0.02 0.03 0.04 0.10 0.17 0.21 0.21 0.21 0.15 0.14 0.24 0.34 0.40 0.46 0.53 0.47 0.48 0.48 0.45 0.40 0.37 0.36 0.40 0.44
0.00 0.00 0.00 0.00 0.00 0.00 0.00 0.00 0.00 0.00 0.00 0.00 0.00 0.00 0.00 0.01 0.01 0.01 0.01 0.01 0.02 0.05 0.07 0.07 0.09 0.10 0.09 0.09 0.10 0.16 0.26 0.34 0.44 0.60 0.64 0.67 0.67 0.61 0.51 0.41 0.34 0.30 0.30